Location: Colonia Mina de C?rbuni
(46.1667°N, 22.7167°E)
Time: 23:24:39
(UTC+00:00)

A-11 Canister half - Visible Passes

Search period start: 16 April 2024 00:00
Search period end: 26 April 2024 00:00
Orbit: 1513 x 1686 km, 47.2° (Epoch: 16 April)

Date Brightness Start Highest point End Pass type
(mag) Time Alt. Az. Time Alt. Az. Time Alt. Az.
16 Apr 11.3 19:13:08 10° WSW 19:14:16 10° WSW 19:15:25 10° SW visible
17 Apr 11.2 18:48:35 10° WSW 18:51:25 11° WSW 18:54:17 10° SW visible
18 Apr 11.2 18:24:47 10° W 18:28:34 13° WSW 18:32:23 10° SW visible
19 Apr 11.2 18:01:12 10° W 18:05:42 14° WSW 18:10:15 10° SSW visible
